カタログに戻る

INTELSAT 4A-F6

運用中通信GEO
NORAD 10778·PAYLOAD· XX

打ち上げ Mar 31, 1978 から Cape Canaveral Space Force Station

Loading…

TLE

最新Source: Space-Track

元期: Sep 14, 2026, 12:42 UTC

1 10778U 78035A   26257.52963537 -.00000357  00000-0  00000+0 0  9993
2 10778   8.6063 311.1392 0008450 307.9042  55.2621  1.00219807123061

AllMySatでINTELSAT 4A-F6をリアルタイム追跡

Download on the App Store